Regional Weather Roundup
Issued by NWS

Home | Current Version | Previous Version | Text Only | Print | Product List | Glossary Off
Versions: 1 2 3 4 5 6 7 8 9 10 11 12 13 14 15 16 17 18 19 20 21 22 23 24 25 26 27 28 29 30 31 32 33 34 35 36 37 38 39 40 41 42 43 44 45 46 47 48 49 50

525
ASUS43 KLOT 290509
RWRIL

ILLINOIS REGIONAL WEATHER ROUNDUP
NATIONAL WEATHER SERVICE CHICAGO/ROMEOVILLE IL
1200 AM CDT THU JUN 29 2017

NOTE: "FAIR" INDICATES FEW OR NO CLOUDS BELOW 12,000 FEET WITH NO
SIGNIFICANT WEATHER AND/OR OBSTRUCTIONS TO VISIBILITY.

* THESE STATIONS ARE NOT UNDER NWS QUALITY CONTROL. THEY ALSO MAY NOT
  REPORT WEATHER SUCH AS PRECIPITATION OR FOG.

ILZ001-002-007-009-015-016-024-290600-
NORTHWEST ILLINOIS

CITY           SKY/WX    TMP DP  RH WIND       PRES   REMARKS
MOLINE         MOCLDY    79  65  62 SW13      29.68F HX  81
SAVANNA*       CLOUDY    74  65  72 S8        29.68R
$$

ILZ003-004-008-010-011-017-018-290600-
NORTH CENTRAL ILLINOIS

CITY           SKY/WX    TMP DP  RH WIND       PRES   REMARKS
ROCKFORD       CLOUDY    67  65  93 SE20      29.71F
FREEPORT*      CLOUDY    67  65  96 S17G28    29.70S
ROCHELLE*      CLOUDY    69  65  88 SE12      29.75F
DE KALB*       CLOUDY    68  65  89 SE10      29.78F
PERU*          CLOUDY    74  62  66 S24G32    29.72F
$$

ILZ005-006-012>014-019>023-290600-
NORTHEAST ILLINOIS

CITY           SKY/WX    TMP DP  RH WIND       PRES   REMARKS
CHICAGO-OHARE  TSTM      66  64  93 N5G26     29.85R VSB 1/2
CHICAGO-MIDWAY CLOUDY    72  65  78 NE8       29.82R
AURORA         CLOUDY    71  64  78 CALM      29.82F
LANSING*       LGT RAIN  73  62  68 S18       29.82F
JOLIET*        MOCLDY    76  65  67 S16G24    29.80S
WAUKEGAN       CLOUDY    65  64  97 SE8       29.78F
DUPAGE AIRPORT CLOUDY    69  66  90 SE12G17   29.80F
WHEELING       TSTM      65  65 100 S9        29.85F FOG
MORRIS*        LGT RAIN  74  63  68 S17G23    29.78F
ROMEOVILLE*    CLOUDY    73  62  66 S17G24    29.81R
$$

LMZ740>746-290600-
SOUTHERN LAKE MICHIGAN

STATION/POSITION SKY/WX   TEMP    WIND        PRES    VSBY  WAVE
                          AIR SEA DIR/SP/G                  HT/PER
                          (F)     (DEG/KT/KT) (MB)    (MI)  (FT/S)
SOUTHERN BUOY              62 60  140/ 10/ 12 1010.4          3/ 5
WILMETTE HARBOR            63 62  160/  6/ 10   N/A           2/ 3
HARRISON CRIB              67      40/ 17/ 17   N/A
BURNHAM HARBOR             65                   N/A
CALUMET HARBOR             74     180/  9/ 13 1009.3R
BURNS HARBOR               72     190/ 14/ 20 1010.2F
MICHIGAN CITY              72     170/ 16/ 19   N/A
MICHIGAN CITY 6N           71 65  180/ 14/ 19   N/A           2/ 4
ST. JOSEPH                 66 67   60/  8/ 10 1011.1          2/ 4
$$

ILZ025>027-034>036-040-047-049-050-058-095>099-290600-
WEST-CENTRAL ILLINOIS

CITY           SKY/WX    TMP DP  RH WIND       PRES   REMARKS
QUINCY         LGT RAIN  66  63  90 CALM      29.94R FOG
GALESBURG*     LGT RAIN  73  65  77 S31G40    29.77R
MACOMB*        TSTM      70  68  92 SW13      29.90R
JACKSONVILLE*  CLOUDY    78  62  58 S12       29.90R
PITTSFIELD*    CLOUDY    77  65  65 SW3       29.93R
$$

ILZ028>032-037-038-041>044-048-051>054-059>061-290600-
CENTRAL ILLINOIS

CITY           SKY/WX    TMP DP  RH WIND       PRES   REMARKS
PONTIAC        MOCLDY    78  65  64 S22G28    29.84S HX  80
BLOOMINGTON    MOCLDY    76  64  66 S24G36    29.86S
DECATUR        MOCLDY    76  63  64 S15       29.92R
PEORIA         MOCLDY    78  62  57 SW24G33   29.82R HX  80
LACON*         CLOUDY    79  62  56 S18G35    29.75F HX  80
LINCOLN*       CLOUDY    78  66  67 S9G17     29.88S HX  80
SPRINGFIELD    MOCLDY    78  66  66 S9        29.90R HX  80
TAYLORVILLE    CLOUDY    75  64  68 S12       29.92R
$$

ILZ033-039-045-046-055>057-062-063-290600-
EAST-CENTRAL ILLINOIS

CITY           SKY/WX    TMP DP  RH WIND       PRES   REMARKS
CHAMPAIGN      CLOUDY    74  63  68 S16       29.92R
RANTOUL*       CLOUDY    76  65  70 S15G21    29.89S
MATTOON        CLOUDY    74  66  76 S10       29.93S
PARIS*         CLOUDY    72  64  75 S9        29.96R
$$

ILZ079-100>102-290600-
SOUTHWEST ILLINOIS

CITY           SKY/WX    TMP DP  RH WIND       PRES   REMARKS
ALTON          MOCLDY    76  67  74 S10       29.93R
BELLEVILLE     CLOUDY    73  65  76 S6        29.94R
CAHOKIA*       PTCLDY    77  64  64 S8        29.92R
SPARTA*        CLOUDY    75  64  68 S6        29.96R
$$

ILZ064>066-069>071-074>076-080>082-084>086-088>090-092>094-290600-
SOUTH-CENTRAL ILLINOIS

CITY           SKY/WX    TMP DP  RH WIND       PRES   REMARKS
CARBONDALE     CLOUDY    71  66  84 S6        29.96R
CAIRO*         CLOUDY    76  66  70 S10       29.96S
EFFINGHAM*     CLOUDY    73  66  77 SE6       29.97S
MARION         CLOUDY    73  66  78 S6        29.97R
MT. VERNON     CLOUDY    72  65  78 SW3       29.97R
CENTRALIA*     CLOUDY    73  66  76 S6        29.95S
SALEM*         CLOUDY    74  65  71 S5        29.96R
METROPOLIS*    CLOUDY    75  65  71 S6        29.98S
$$

ILZ067-068-072-073-078-083-087-091-290600-
SOUTHEAST ILLINOIS

CITY           SKY/WX    TMP DP  RH WIND       PRES   REMARKS
LAWRENCEVILLE  CLOUDY    68  64  87 S7        29.98R
FLORA*         CLOUDY    74  67  76 S7        29.97R
FAIRFIELD*     MOCLDY    73  66  77 S3        29.96R
HARRISBURG*    PTCLDY    72  67  84 S5        29.97S
ROBINSON*      PTCLDY    68  62  82 S5        29.98R
CARMI*         CLOUDY    71  65  82 S6        29.97R
$$

ABBREVIATIONS USED IN REMARKS
   TC - TEMPERATURE IN CELSIUS
  WCI - WIND CHILL INDEX
   HX - HEAT INDEX
  VSB - VISIBILITY
$$





USA.gov is the U.S. government's official web portal to all federal, state and local government web resources and services.